Year,Month,Day,Hour,Minute,Value (Times are PST for temperature in C)
2017,06,24,00,00,15.20
2017,06,24,00,01,15.20
2017,06,24,00,02,15.20
2017,06,24,00,03,15.10
2017,06,24,00,04,15.10
2017,06,24,00,05,15.10
2017,06,24,00,06,15.10
2017,06,24,00,07,15.00
2017,06,24,00,08,15.00
2017,06,24,00,09,15.00
2017,06,24,00,10,14.90
2017,06,24,00,11,14.90
2017,06,24,00,12,14.90
2017,06,24,00,13,14.90
2017,06,24,00,14,14.90
2017,06,24,00,15,14.80
2017,06,24,00,16,14.80
2017,06,24,00,17,14.80
2017,06,24,00,18,14.80
2017,06,24,00,19,14.80
2017,06,24,00,20,14.70
2017,06,24,00,21,14.70
2017,06,24,00,22,14.70
2017,06,24,00,23,14.70
2017,06,24,00,24,14.60
2017,06,24,00,25,14.60
2017,06,24,00,26,14.60
2017,06,24,00,27,14.60
2017,06,24,00,28,14.50
2017,06,24,00,29,14.50
2017,06,24,00,30,14.50
2017,06,24,00,31,14.40
2017,06,24,00,32,14.40
2017,06,24,00,33,14.40
2017,06,24,00,34,14.40
2017,06,24,00,35,14.40
2017,06,24,00,36,14.30
2017,06,24,00,37,14.30
2017,06,24,00,38,14.30
2017,06,24,00,39,14.30
2017,06,24,00,40,14.30
2017,06,24,00,41,14.20
2017,06,24,00,42,14.20
2017,06,24,00,43,14.20
2017,06,24,00,44,14.20
2017,06,24,00,45,14.20
2017,06,24,00,46,14.10
2017,06,24,00,47,14.10
2017,06,24,00,48,14.10
2017,06,24,00,49,14.10
2017,06,24,00,50,14.10
2017,06,24,00,51,14.10
2017,06,24,00,52,14.00
2017,06,24,00,53,14.00
2017,06,24,00,54,14.00
2017,06,24,00,55,14.00
2017,06,24,00,56,13.90
2017,06,24,00,57,13.90
2017,06,24,00,58,13.90
2017,06,24,00,59,13.90
2017,06,24,01,00,13.90
2017,06,24,01,01,13.90
2017,06,24,01,02,13.90
2017,06,24,01,03,13.80
2017,06,24,01,04,13.80
2017,06,24,01,05,13.80
2017,06,24,01,06,13.80
2017,06,24,01,07,13.80
2017,06,24,01,08,13.80
2017,06,24,01,09,13.70
2017,06,24,01,10,13.70
2017,06,24,01,11,13.70
2017,06,24,01,12,13.70
2017,06,24,01,13,13.70
2017,06,24,01,14,13.70
2017,06,24,01,15,13.70
2017,06,24,01,16,13.70
2017,06,24,01,17,13.70
2017,06,24,01,18,13.60
2017,06,24,01,19,13.60
2017,06,24,01,20,13.60
2017,06,24,01,21,13.60
2017,06,24,01,22,13.60
2017,06,24,01,23,13.60
2017,06,24,01,24,13.60
2017,06,24,01,25,13.60
2017,06,24,01,26,13.60
2017,06,24,01,27,13.50
2017,06,24,01,28,13.50
2017,06,24,01,29,13.50
2017,06,24,01,30,13.50
2017,06,24,01,31,13.50
2017,06,24,01,32,13.50
2017,06,24,01,33,13.40
2017,06,24,01,34,13.40
2017,06,24,01,35,13.40
2017,06,24,01,36,13.40
2017,06,24,01,37,13.40
2017,06,24,01,38,13.40
2017,06,24,01,39,13.40
2017,06,24,01,40,13.30
2017,06,24,01,41,13.30
2017,06,24,01,42,13.30
2017,06,24,01,43,13.30
2017,06,24,01,44,13.30
2017,06,24,01,45,13.30
2017,06,24,01,46,13.30
2017,06,24,01,47,13.30
2017,06,24,01,48,13.30
2017,06,24,01,49,13.30
2017,06,24,01,50,13.20
2017,06,24,01,51,13.20
2017,06,24,01,52,13.20
2017,06,24,01,53,13.20
2017,06,24,01,54,13.20
2017,06,24,01,55,13.20
2017,06,24,01,56,13.20
2017,06,24,01,57,13.20
2017,06,24,01,58,13.10
2017,06,24,01,59,13.10
2017,06,24,02,00,13.10
2017,06,24,02,01,13.10
2017,06,24,02,02,13.10
2017,06,24,02,03,13.10
2017,06,24,02,04,13.10
2017,06,24,02,05,13.10
2017,06,24,02,06,13.00
2017,06,24,02,07,13.00
2017,06,24,02,08,13.00
2017,06,24,02,09,13.00
2017,06,24,02,10,13.00
2017,06,24,02,11,13.00
2017,06,24,02,12,12.90
2017,06,24,02,13,12.90
2017,06,24,02,14,12.90
2017,06,24,02,15,12.90
2017,06,24,02,16,12.90
2017,06,24,02,17,12.90
2017,06,24,02,18,12.90
2017,06,24,02,19,12.80
2017,06,24,02,20,12.80
2017,06,24,02,21,12.80
2017,06,24,02,22,12.80
2017,06,24,02,23,12.80
2017,06,24,02,24,12.80
2017,06,24,02,25,12.80
2017,06,24,02,26,12.80
2017,06,24,02,27,12.80
2017,06,24,02,28,12.80
2017,06,24,02,29,12.80
2017,06,24,02,30,12.70
2017,06,24,02,31,12.70
2017,06,24,02,32,12.70
2017,06,24,02,33,12.70
2017,06,24,02,34,12.70
2017,06,24,02,35,12.70
2017,06,24,02,36,12.70
2017,06,24,02,37,12.70
2017,06,24,02,38,12.70
2017,06,24,02,39,12.70
2017,06,24,02,40,12.70
2017,06,24,02,41,12.70
2017,06,24,02,42,12.70
2017,06,24,02,43,12.60
2017,06,24,02,44,12.60
2017,06,24,02,45,12.60
2017,06,24,02,46,12.60
2017,06,24,02,47,12.60
2017,06,24,02,48,12.60
2017,06,24,02,49,12.60
2017,06,24,02,50,12.60
2017,06,24,02,51,12.60
2017,06,24,02,52,12.60
2017,06,24,02,53,12.50
2017,06,24,02,54,12.50
2017,06,24,02,55,12.50
2017,06,24,02,56,12.50
2017,06,24,02,57,12.50
2017,06,24,02,58,12.40
2017,06,24,02,59,12.40
2017,06,24,03,00,12.40
2017,06,24,03,01,12.40
2017,06,24,03,02,12.40
2017,06,24,03,03,12.40
2017,06,24,03,04,12.40
2017,06,24,03,05,12.30
2017,06,24,03,06,12.30
2017,06,24,03,07,12.30
2017,06,24,03,08,12.30
2017,06,24,03,09,12.30
2017,06,24,03,10,12.30
2017,06,24,03,11,12.30
2017,06,24,03,12,12.30
2017,06,24,03,13,12.30
2017,06,24,03,14,12.20
2017,06,24,03,15,12.20
2017,06,24,03,16,12.20
2017,06,24,03,17,12.20
2017,06,24,03,18,12.20
2017,06,24,03,19,12.20
2017,06,24,03,20,12.20
2017,06,24,03,21,12.10
2017,06,24,03,22,12.10
2017,06,24,03,23,12.10
2017,06,24,03,24,12.10
2017,06,24,03,25,12.10
2017,06,24,03,26,12.10
2017,06,24,03,27,12.10
2017,06,24,03,28,12.10
2017,06,24,03,29,12.10
2017,06,24,03,30,12.10
2017,06,24,03,31,12.10
2017,06,24,03,32,12.00
2017,06,24,03,33,12.00
2017,06,24,03,34,12.00
2017,06,24,03,35,12.00
2017,06,24,03,36,12.00
2017,06,24,03,37,12.00
2017,06,24,03,38,11.90
2017,06,24,03,39,11.90
2017,06,24,03,40,11.90
2017,06,24,03,41,11.90
2017,06,24,03,42,11.90
2017,06,24,03,43,11.90
2017,06,24,03,44,11.90
2017,06,24,03,45,11.90
2017,06,24,03,46,11.90
2017,06,24,03,47,11.80
2017,06,24,03,48,11.80
2017,06,24,03,49,11.80
2017,06,24,03,50,11.80
2017,06,24,03,51,11.80
2017,06,24,03,52,11.80
2017,06,24,03,53,11.80
2017,06,24,03,54,11.80
2017,06,24,03,55,11.80
2017,06,24,03,56,11.80
2017,06,24,03,57,11.80
2017,06,24,03,58,11.80
2017,06,24,03,59,11.80
2017,06,24,04,00,11.80
2017,06,24,04,01,11.80
2017,06,24,04,02,11.80
2017,06,24,04,03,11.80
2017,06,24,04,04,11.90
2017,06,24,04,05,11.90
2017,06,24,04,06,11.90
2017,06,24,04,07,11.90
2017,06,24,04,08,11.90
2017,06,24,04,09,11.90
2017,06,24,04,10,11.90
2017,06,24,04,11,11.90
2017,06,24,04,12,11.90
2017,06,24,04,13,11.90
2017,06,24,04,14,11.90
2017,06,24,04,15,11.90
2017,06,24,04,16,11.90
2017,06,24,04,17,11.90
2017,06,24,04,18,11.90
2017,06,24,04,19,11.90
2017,06,24,04,20,11.90
2017,06,24,04,21,11.90
2017,06,24,04,22,11.80
2017,06,24,04,23,11.80
2017,06,24,04,24,11.80
2017,06,24,04,25,11.80
2017,06,24,04,26,11.80
2017,06,24,04,27,11.80
2017,06,24,04,28,11.80
2017,06,24,04,29,11.80
2017,06,24,04,30,11.80
2017,06,24,04,31,11.80
2017,06,24,04,32,11.80
2017,06,24,04,33,11.70
2017,06,24,04,34,11.70
2017,06,24,04,35,11.70
2017,06,24,04,36,11.70
2017,06,24,04,37,11.70
2017,06,24,04,38,11.70
2017,06,24,04,39,11.60
2017,06,24,04,40,11.60
2017,06,24,04,41,11.60
2017,06,24,04,42,11.60
2017,06,24,04,43,11.60
2017,06,24,04,44,11.60
2017,06,24,04,45,11.50
2017,06,24,04,46,11.50
2017,06,24,04,47,11.50
2017,06,24,04,48,11.50
2017,06,24,04,49,11.50
2017,06,24,04,50,11.40
2017,06,24,04,51,11.40
2017,06,24,04,52,11.40
2017,06,24,04,53,11.40
2017,06,24,04,54,11.40
2017,06,24,04,55,11.40
2017,06,24,04,56,11.40
2017,06,24,04,57,11.40
2017,06,24,04,58,11.40
2017,06,24,04,59,11.40
2017,06,24,05,00,11.40
2017,06,24,05,01,11.40
2017,06,24,05,02,11.40
2017,06,24,05,03,11.40
2017,06,24,05,04,11.40
2017,06,24,05,05,11.40
2017,06,24,05,06,11.40
2017,06,24,05,07,11.30
2017,06,24,05,08,11.30
2017,06,24,05,09,11.30
2017,06,24,05,10,11.30
2017,06,24,05,11,11.30
2017,06,24,05,12,11.30
2017,06,24,05,13,11.30
2017,06,24,05,14,11.30
2017,06,24,05,15,11.20
2017,06,24,05,16,11.20
2017,06,24,05,17,11.20
2017,06,24,05,18,11.20
2017,06,24,05,19,11.20
2017,06,24,05,20,11.20
2017,06,24,05,21,11.20
2017,06,24,05,22,11.20
2017,06,24,05,23,11.20
2017,06,24,05,24,11.20
2017,06,24,05,25,11.10
2017,06,24,05,26,11.10
2017,06,24,05,27,11.10
2017,06,24,05,28,11.10
2017,06,24,05,29,11.10
2017,06,24,05,30,11.10
2017,06,24,05,31,11.10
2017,06,24,05,32,11.10
2017,06,24,05,33,11.10
2017,06,24,05,34,11.10
2017,06,24,05,35,11.10
2017,06,24,05,36,11.10
2017,06,24,05,37,11.10
2017,06,24,05,38,11.10
2017,06,24,05,39,11.10
2017,06,24,05,40,11.10
2017,06,24,05,41,11.10
2017,06,24,05,42,11.10
2017,06,24,05,43,11.10
2017,06,24,05,44,11.10
2017,06,24,05,45,11.10
2017,06,24,05,46,11.10
2017,06,24,05,47,11.10
2017,06,24,05,48,11.10
2017,06,24,05,49,11.10
2017,06,24,05,50,11.10
2017,06,24,05,51,11.10
2017,06,24,05,52,11.10
2017,06,24,05,53,11.20
2017,06,24,05,54,11.20
2017,06,24,05,55,11.20
2017,06,24,05,56,11.30
2017,06,24,05,57,11.30
2017,06,24,05,58,11.30
2017,06,24,05,59,11.40
2017,06,24,06,00,11.40
2017,06,24,06,01,11.40
2017,06,24,06,02,11.50
2017,06,24,06,03,11.50
2017,06,24,06,04,11.50
2017,06,24,06,05,11.50
2017,06,24,06,06,11.60
2017,06,24,06,07,11.60
2017,06,24,06,08,11.60
2017,06,24,06,09,11.60
2017,06,24,06,10,11.60
2017,06,24,06,11,11.60
2017,06,24,06,12,11.60
2017,06,24,06,13,11.60
2017,06,24,06,14,11.60
2017,06,24,06,15,11.60
2017,06,24,06,16,11.60
2017,06,24,06,17,11.60
2017,06,24,06,18,11.60
2017,06,24,06,19,11.60
2017,06,24,06,20,11.60
2017,06,24,06,21,11.60
2017,06,24,06,22,11.60
2017,06,24,06,23,11.60
2017,06,24,06,24,11.60
2017,06,24,06,25,11.60
2017,06,24,06,26,11.70
2017,06,24,06,27,11.70
2017,06,24,06,28,11.70
2017,06,24,06,29,11.80
2017,06,24,06,30,11.80
2017,06,24,06,31,11.80
2017,06,24,06,32,11.80
2017,06,24,06,33,11.90
2017,06,24,06,34,11.90
2017,06,24,06,35,11.90
2017,06,24,06,36,12.00
2017,06,24,06,37,12.00
2017,06,24,06,38,12.10
2017,06,24,06,39,12.10
2017,06,24,06,40,12.20
2017,06,24,06,41,12.20
2017,06,24,06,42,12.20
2017,06,24,06,43,12.30
2017,06,24,06,44,12.30
2017,06,24,06,45,12.30
2017,06,24,06,46,12.40
2017,06,24,06,47,12.40
2017,06,24,06,48,12.40
2017,06,24,06,49,12.40
2017,06,24,06,50,12.50
2017,06,24,06,51,12.50
2017,06,24,06,52,12.60
2017,06,24,06,53,12.60
2017,06,24,06,54,12.70
2017,06,24,06,55,12.80
2017,06,24,06,56,12.80
2017,06,24,06,57,12.80
2017,06,24,06,58,12.90
2017,06,24,06,59,12.90
2017,06,24,07,00,13.00
2017,06,24,07,01,13.00
2017,06,24,07,02,13.10
2017,06,24,07,03,13.10
2017,06,24,07,04,13.20
2017,06,24,07,05,13.20
2017,06,24,07,06,13.20
2017,06,24,07,07,13.30
2017,06,24,07,08,13.40
2017,06,24,07,09,13.40
2017,06,24,07,10,13.50
2017,06,24,07,11,13.50
2017,06,24,07,12,13.60
2017,06,24,07,13,13.60
2017,06,24,07,14,13.70
2017,06,24,07,15,13.70
2017,06,24,07,16,13.80
2017,06,24,07,17,13.80
2017,06,24,07,18,13.80
2017,06,24,07,19,13.90
2017,06,24,07,20,14.00
2017,06,24,07,21,14.10
2017,06,24,07,22,14.10
2017,06,24,07,23,14.20
2017,06,24,07,24,14.30
2017,06,24,07,25,14.30
2017,06,24,07,26,14.40
2017,06,24,07,27,14.50
2017,06,24,07,28,14.60
2017,06,24,07,29,14.60
2017,06,24,07,30,14.70
2017,06,24,07,31,14.80
2017,06,24,07,32,14.80
2017,06,24,07,33,14.90
2017,06,24,07,34,14.90
2017,06,24,07,35,15.00
2017,06,24,07,36,15.10
2017,06,24,07,37,15.20
2017,06,24,07,38,15.30
2017,06,24,07,39,15.30
2017,06,24,07,40,15.40
2017,06,24,07,41,15.40
2017,06,24,07,42,15.50
2017,06,24,07,43,15.60
2017,06,24,07,44,15.60
2017,06,24,07,45,15.70
2017,06,24,07,46,15.80
2017,06,24,07,47,15.80
2017,06,24,07,48,15.90
2017,06,24,07,49,16.00
2017,06,24,07,50,16.00
2017,06,24,07,51,16.10
2017,06,24,07,52,16.20
2017,06,24,07,53,16.30
2017,06,24,07,54,16.30
2017,06,24,07,55,16.40
2017,06,24,07,56,16.40
2017,06,24,07,57,16.40
2017,06,24,07,58,16.50
2017,06,24,07,59,16.60
2017,06,24,08,00,16.60
2017,06,24,08,01,16.70
2017,06,24,08,02,16.80
2017,06,24,08,03,17.00
2017,06,24,08,04,17.10
2017,06,24,08,05,17.20
2017,06,24,08,06,17.30
2017,06,24,08,07,17.40
2017,06,24,08,08,17.50
2017,06,24,08,09,17.70
2017,06,24,08,10,17.80
2017,06,24,08,11,18.00
2017,06,24,08,12,18.10
2017,06,24,08,13,18.20
2017,06,24,08,14,18.30
2017,06,24,08,15,18.40
2017,06,24,08,16,18.50
2017,06,24,08,17,18.60
2017,06,24,08,18,18.70
2017,06,24,08,19,18.80
2017,06,24,08,20,18.90
2017,06,24,08,21,19.00
2017,06,24,08,22,19.10
2017,06,24,08,23,19.30
2017,06,24,08,24,19.40
2017,06,24,08,25,19.50
2017,06,24,08,26,19.50
2017,06,24,08,27,19.60
2017,06,24,08,28,19.70
2017,06,24,08,29,19.70
2017,06,24,08,30,19.80
2017,06,24,08,31,19.90
2017,06,24,08,32,20.00
2017,06,24,08,33,20.10
2017,06,24,08,34,20.10
2017,06,24,08,35,20.20
2017,06,24,08,36,20.30
2017,06,24,08,37,20.40
2017,06,24,08,38,20.50
2017,06,24,08,39,20.60
2017,06,24,08,40,20.70
2017,06,24,08,41,20.80
2017,06,24,08,42,20.90
2017,06,24,08,43,20.90
2017,06,24,08,44,21.00
2017,06,24,08,45,21.00
2017,06,24,08,46,21.10
2017,06,24,08,47,21.10
2017,06,24,08,48,21.10
2017,06,24,08,49,21.20
2017,06,24,08,50,21.30
2017,06,24,08,51,21.30
2017,06,24,08,52,21.30
2017,06,24,08,53,21.40
2017,06,24,08,54,21.40
2017,06,24,08,55,21.40
2017,06,24,08,56,21.50
2017,06,24,08,57,21.50
2017,06,24,08,58,21.50
2017,06,24,08,59,21.50
2017,06,24,09,00,21.50
2017,06,24,09,01,21.60
2017,06,24,09,02,21.60
2017,06,24,09,03,21.60
2017,06,24,09,04,21.70
2017,06,24,09,05,21.70
2017,06,24,09,06,21.70
2017,06,24,09,07,21.80
2017,06,24,09,08,21.80
2017,06,24,09,09,21.90
2017,06,24,09,10,21.90
2017,06,24,09,11,22.00
2017,06,24,09,12,22.00
2017,06,24,09,13,22.10
2017,06,24,09,14,22.20
2017,06,24,09,15,22.20
2017,06,24,09,16,22.30
2017,06,24,09,17,22.30
2017,06,24,09,18,22.30
2017,06,24,09,19,22.40
2017,06,24,09,20,22.50
2017,06,24,09,21,22.60
2017,06,24,09,22,22.60
2017,06,24,09,23,22.70
2017,06,24,09,24,22.70
2017,06,24,09,25,22.80
2017,06,24,09,26,22.80
2017,06,24,09,27,22.90
2017,06,24,09,28,23.00
2017,06,24,09,29,23.00
2017,06,24,09,30,23.10
2017,06,24,09,31,23.10
2017,06,24,09,32,23.20
2017,06,24,09,33,23.20
2017,06,24,09,34,23.30
2017,06,24,09,35,23.30
2017,06,24,09,36,23.40
2017,06,24,09,37,23.40
2017,06,24,09,38,23.50
2017,06,24,09,39,23.60
2017,06,24,09,40,23.60
2017,06,24,09,41,23.60
2017,06,24,09,42,23.70
2017,06,24,09,43,23.70
2017,06,24,09,44,23.70
2017,06,24,09,45,23.70
2017,06,24,09,46,23.80
2017,06,24,09,47,23.80
2017,06,24,09,48,23.80
2017,06,24,09,49,23.80
2017,06,24,09,50,23.90
2017,06,24,09,51,23.90
2017,06,24,09,52,23.90
2017,06,24,09,53,23.90
2017,06,24,09,54,24.00
2017,06,24,09,55,24.00
2017,06,24,09,56,24.10
2017,06,24,09,57,24.20
2017,06,24,09,58,24.20
2017,06,24,09,59,24.30
2017,06,24,10,00,24.30
2017,06,24,10,01,24.30
2017,06,24,10,02,24.30
2017,06,24,10,03,24.40
2017,06,24,10,04,24.40
2017,06,24,10,05,24.50
2017,06,24,10,06,24.50
2017,06,24,10,07,24.60
2017,06,24,10,08,24.70
2017,06,24,10,09,24.70
2017,06,24,10,10,24.70
2017,06,24,10,11,24.80
2017,06,24,10,12,24.80
2017,06,24,10,13,24.80
2017,06,24,10,14,24.80
2017,06,24,10,15,24.80
2017,06,24,10,16,24.90
2017,06,24,10,17,24.90
2017,06,24,10,18,24.90
2017,06,24,10,19,24.90
2017,06,24,10,20,24.90
2017,06,24,10,21,24.90
2017,06,24,10,22,24.90
2017,06,24,10,23,25.00
2017,06,24,10,24,25.00
2017,06,24,10,25,25.00
2017,06,24,10,26,25.00
2017,06,24,10,27,25.00
2017,06,24,10,28,25.00
2017,06,24,10,29,24.90
2017,06,24,10,30,25.00
2017,06,24,10,31,24.90
2017,06,24,10,32,25.00
2017,06,24,10,33,25.00
2017,06,24,10,34,25.10
2017,06,24,10,35,25.10
2017,06,24,10,36,25.10
2017,06,24,10,37,25.10
2017,06,24,10,38,25.10
2017,06,24,10,39,25.10
2017,06,24,10,40,25.10
2017,06,24,10,41,25.10
2017,06,24,10,42,25.20
2017,06,24,10,43,25.20
2017,06,24,10,44,25.20
2017,06,24,10,45,25.20
2017,06,24,10,46,25.20
2017,06,24,10,47,25.20
2017,06,24,10,48,25.20
2017,06,24,10,49,25.20
2017,06,24,10,50,25.30
2017,06,24,10,51,25.30
2017,06,24,10,52,25.30
2017,06,24,10,53,25.30
2017,06,24,10,54,25.30
2017,06,24,10,55,25.40
2017,06,24,10,56,25.50
2017,06,24,10,57,25.50
2017,06,24,10,58,25.60
2017,06,24,10,59,25.60
2017,06,24,11,00,25.70
2017,06,24,11,01,25.80
2017,06,24,11,02,25.80
2017,06,24,11,03,25.80
2017,06,24,11,04,25.70
2017,06,24,11,05,25.70
2017,06,24,11,06,25.70
2017,06,24,11,07,25.80
2017,06,24,11,08,25.80
2017,06,24,11,09,25.80
2017,06,24,11,10,25.80
2017,06,24,11,11,25.80
2017,06,24,11,12,25.80
2017,06,24,11,13,25.80
2017,06,24,11,14,25.80
2017,06,24,11,15,25.80
2017,06,24,11,16,25.80
2017,06,24,11,17,25.90
2017,06,24,11,18,25.90
2017,06,24,11,19,25.90
2017,06,24,11,20,25.90
2017,06,24,11,21,25.90
2017,06,24,11,22,25.90
2017,06,24,11,23,25.90
2017,06,24,11,24,25.90
2017,06,24,11,25,25.90
2017,06,24,11,26,25.80
2017,06,24,11,27,25.80
2017,06,24,11,28,25.80
2017,06,24,11,29,25.80
2017,06,24,11,30,25.80
2017,06,24,11,31,25.80
2017,06,24,11,32,25.90
2017,06,24,11,33,25.90
2017,06,24,11,34,25.90
2017,06,24,11,35,25.90
2017,06,24,11,36,25.90
2017,06,24,11,37,25.90
2017,06,24,11,38,25.90
2017,06,24,11,39,25.80
2017,06,24,11,40,25.80
2017,06,24,11,41,25.80
2017,06,24,11,42,25.80
2017,06,24,11,43,25.80
2017,06,24,11,44,25.90
2017,06,24,11,45,25.90
2017,06,24,11,46,26.00
2017,06,24,11,47,26.10
2017,06,24,11,48,26.20
2017,06,24,11,49,26.30
2017,06,24,11,50,26.30
2017,06,24,11,51,26.40
2017,06,24,11,52,26.40
2017,06,24,11,53,26.40
2017,06,24,11,54,26.40
2017,06,24,11,55,26.50
2017,06,24,11,56,26.50
2017,06,24,11,57,26.60
2017,06,24,11,58,26.60
2017,06,24,11,59,26.60
2017,06,24,12,00,26.60
2017,06,24,12,01,26.60
2017,06,24,12,02,26.60
2017,06,24,12,03,26.60
2017,06,24,12,04,26.60
2017,06,24,12,05,26.70
2017,06,24,12,06,26.70
2017,06,24,12,07,26.70
2017,06,24,12,08,26.70
2017,06,24,12,09,26.70
2017,06,24,12,10,26.70
2017,06,24,12,11,26.80
2017,06,24,12,12,26.80
2017,06,24,12,13,26.80
2017,06,24,12,14,26.80
2017,06,24,12,15,26.80
2017,06,24,12,16,26.80
2017,06,24,12,17,26.90
2017,06,24,12,18,26.90
2017,06,24,12,19,26.90
2017,06,24,12,20,26.90
2017,06,24,12,21,26.90
2017,06,24,12,22,26.80
2017,06,24,12,23,26.90
2017,06,24,12,24,26.90
2017,06,24,12,25,26.90
2017,06,24,12,26,26.90
2017,06,24,12,27,26.90
2017,06,24,12,28,26.90
2017,06,24,12,29,27.00
2017,06,24,12,30,27.00
2017,06,24,12,31,27.00
2017,06,24,12,32,27.00
2017,06,24,12,33,26.90
2017,06,24,12,34,26.90
2017,06,24,12,35,26.90
2017,06,24,12,36,26.90
2017,06,24,12,37,26.90
2017,06,24,12,38,26.90
2017,06,24,12,39,27.00
2017,06,24,12,40,27.00
2017,06,24,12,41,27.00
2017,06,24,12,42,27.00
2017,06,24,12,43,27.00
2017,06,24,12,44,27.10
2017,06,24,12,45,27.10
2017,06,24,12,46,27.20
2017,06,24,12,47,27.30
2017,06,24,12,48,27.40
2017,06,24,12,49,27.40
2017,06,24,12,50,27.50
2017,06,24,12,51,27.60
2017,06,24,12,52,27.70
2017,06,24,12,53,27.80
2017,06,24,12,54,27.80
2017,06,24,12,55,27.90
2017,06,24,12,56,28.00
2017,06,24,12,57,28.00
2017,06,24,12,58,28.10
2017,06,24,12,59,28.10
2017,06,24,13,00,28.20
2017,06,24,13,01,28.20
2017,06,24,13,02,28.20
2017,06,24,13,03,28.20
2017,06,24,13,04,28.20
2017,06,24,13,05,28.20
2017,06,24,13,06,28.20
2017,06,24,13,07,28.20
2017,06,24,13,08,28.30
2017,06,24,13,09,28.30
2017,06,24,13,10,28.30
2017,06,24,13,11,28.30
2017,06,24,13,12,28.30
2017,06,24,13,13,28.30
2017,06,24,13,14,28.30
2017,06,24,13,15,28.30
2017,06,24,13,16,28.20
2017,06,24,13,17,28.20
2017,06,24,13,18,28.10
2017,06,24,13,19,28.10
2017,06,24,13,20,28.00
2017,06,24,13,21,28.00
2017,06,24,13,22,28.00
2017,06,24,13,23,28.00
2017,06,24,13,24,28.00
2017,06,24,13,25,28.10
2017,06,24,13,26,28.10
2017,06,24,13,27,28.10
2017,06,24,13,28,28.10
2017,06,24,13,29,28.10
2017,06,24,13,30,28.10
2017,06,24,13,31,28.10
2017,06,24,13,32,28.10
2017,06,24,13,33,28.00
2017,06,24,13,34,28.00
2017,06,24,13,35,28.00
2017,06,24,13,36,28.10
2017,06,24,13,37,28.10
2017,06,24,13,38,28.10
2017,06,24,13,39,28.20
2017,06,24,13,40,28.20
2017,06,24,13,41,28.20
2017,06,24,13,42,28.30
2017,06,24,13,43,28.30
2017,06,24,13,44,28.30
2017,06,24,13,45,28.30
2017,06,24,13,46,28.30
2017,06,24,13,47,28.30
2017,06,24,13,48,28.30
2017,06,24,13,49,28.30
2017,06,24,13,50,28.20
2017,06,24,13,51,28.20
2017,06,24,13,52,28.20
2017,06,24,13,53,28.20
2017,06,24,13,54,28.20
2017,06,24,13,55,28.30
2017,06,24,13,56,28.30
2017,06,24,13,57,28.30
2017,06,24,13,58,28.30
2017,06,24,13,59,28.40
2017,06,24,14,00,28.40
2017,06,24,14,01,28.40
2017,06,24,14,02,28.40
2017,06,24,14,03,28.40
2017,06,24,14,04,28.40
2017,06,24,14,05,28.40
2017,06,24,14,06,28.40
2017,06,24,14,07,28.40
2017,06,24,14,08,28.50
2017,06,24,14,09,28.50
2017,06,24,14,10,28.60
2017,06,24,14,11,28.60
2017,06,24,14,12,28.60
2017,06,24,14,13,28.70
2017,06,24,14,14,28.70
2017,06,24,14,15,28.80
2017,06,24,14,16,28.80
2017,06,24,14,17,28.80
2017,06,24,14,18,28.90
2017,06,24,14,19,28.90
2017,06,24,14,20,29.00
2017,06,24,14,21,29.00
2017,06,24,14,22,29.10
2017,06,24,14,23,29.10
2017,06,24,14,24,29.10
2017,06,24,14,25,29.20
2017,06,24,14,26,29.20
2017,06,24,14,27,29.30
2017,06,24,14,28,29.30
2017,06,24,14,29,29.40
2017,06,24,14,30,29.40
2017,06,24,14,31,29.50
2017,06,24,14,32,29.60
2017,06,24,14,33,29.60
2017,06,24,14,34,29.60
2017,06,24,14,35,29.70
2017,06,24,14,36,29.70
2017,06,24,14,37,29.80
2017,06,24,14,38,29.80
2017,06,24,14,39,29.80
2017,06,24,14,40,29.90
2017,06,24,14,41,29.90
2017,06,24,14,42,29.90
2017,06,24,14,43,29.90
2017,06,24,14,44,29.90
2017,06,24,14,45,29.90
2017,06,24,14,46,29.90
2017,06,24,14,47,29.90
2017,06,24,14,48,29.90
2017,06,24,14,49,30.00
2017,06,24,14,50,30.10
2017,06,24,14,51,30.10
2017,06,24,14,52,30.20
2017,06,24,14,53,30.20
2017,06,24,14,54,30.20
2017,06,24,14,55,30.30
2017,06,24,14,56,30.30
2017,06,24,14,57,30.30
2017,06,24,14,58,30.30
2017,06,24,14,59,30.30
2017,06,24,15,00,30.30
2017,06,24,15,01,30.30
2017,06,24,15,02,30.30
2017,06,24,15,03,30.30
2017,06,24,15,04,30.30
2017,06,24,15,05,30.30
2017,06,24,15,06,30.30
2017,06,24,15,07,30.30
2017,06,24,15,08,30.30
2017,06,24,15,09,30.30
2017,06,24,15,10,30.40
2017,06,24,15,11,30.40
2017,06,24,15,12,30.40
2017,06,24,15,13,30.40
2017,06,24,15,14,30.40
2017,06,24,15,15,30.40
2017,06,24,15,16,30.50
2017,06,24,15,17,30.50
2017,06,24,15,18,30.60
2017,06,24,15,19,30.60
2017,06,24,15,20,30.60
2017,06,24,15,21,30.60
2017,06,24,15,22,30.60
2017,06,24,15,23,30.60
2017,06,24,15,24,30.60
2017,06,24,15,25,30.60
2017,06,24,15,26,30.70
2017,06,24,15,27,30.70
2017,06,24,15,28,30.70
2017,06,24,15,29,30.80
2017,06,24,15,30,30.80
2017,06,24,15,31,30.80
2017,06,24,15,32,30.90
2017,06,24,15,33,30.90
2017,06,24,15,34,30.90
2017,06,24,15,35,30.80
2017,06,24,15,36,30.80
2017,06,24,15,37,30.80
2017,06,24,15,38,30.70
2017,06,24,15,39,30.70
2017,06,24,15,40,30.70
2017,06,24,15,41,30.80
2017,06,24,15,42,30.80
2017,06,24,15,43,30.80
2017,06,24,15,44,30.80
2017,06,24,15,45,30.90
2017,06,24,15,46,30.90
2017,06,24,15,47,30.90
2017,06,24,15,48,30.90
2017,06,24,15,49,30.90
2017,06,24,15,50,31.00
2017,06,24,15,51,31.00
2017,06,24,15,52,30.90
2017,06,24,15,53,30.90
2017,06,24,15,54,30.90
2017,06,24,15,55,30.90
2017,06,24,15,56,30.90
2017,06,24,15,57,30.80
2017,06,24,15,58,30.90
2017,06,24,15,59,30.90
2017,06,24,16,00,30.90
2017,06,24,16,01,30.90
2017,06,24,16,02,30.90
2017,06,24,16,03,30.90
2017,06,24,16,04,30.90
2017,06,24,16,05,30.90
2017,06,24,16,06,30.90
2017,06,24,16,07,30.80
2017,06,24,16,08,30.80
2017,06,24,16,09,30.80
2017,06,24,16,10,30.80
2017,06,24,16,11,30.90
2017,06,24,16,12,30.90
2017,06,24,16,13,30.90
2017,06,24,16,14,30.90
2017,06,24,16,15,30.90
2017,06,24,16,16,30.80
2017,06,24,16,17,30.80
2017,06,24,16,18,30.80
2017,06,24,16,19,30.70
2017,06,24,16,20,30.70
2017,06,24,16,21,30.70
2017,06,24,16,22,30.70
2017,06,24,16,23,30.70
2017,06,24,16,24,30.70
2017,06,24,16,25,30.70
2017,06,24,16,26,30.70
2017,06,24,16,27,30.70
2017,06,24,16,28,30.70
2017,06,24,16,29,30.80
2017,06,24,16,30,30.80
2017,06,24,16,31,30.80
2017,06,24,16,32,30.90
2017,06,24,16,33,30.90
2017,06,24,16,34,30.90
2017,06,24,16,35,30.90
2017,06,24,16,36,30.90
2017,06,24,16,37,30.90
2017,06,24,16,38,30.90
2017,06,24,16,39,31.00
2017,06,24,16,40,31.00
2017,06,24,16,41,31.00
2017,06,24,16,42,31.00
2017,06,24,16,43,31.00
2017,06,24,16,44,31.10
2017,06,24,16,45,31.10
2017,06,24,16,46,31.10
2017,06,24,16,47,31.10
2017,06,24,16,48,31.10
2017,06,24,16,49,31.10
2017,06,24,16,50,31.20
2017,06,24,16,51,31.20
2017,06,24,16,52,31.20
2017,06,24,16,53,31.20
2017,06,24,16,54,31.20
2017,06,24,16,55,31.20
2017,06,24,16,56,31.30
2017,06,24,16,57,31.30
2017,06,24,16,58,31.30
2017,06,24,16,59,31.30
2017,06,24,17,00,31.30
2017,06,24,17,01,31.30
2017,06,24,17,02,31.30
2017,06,24,17,03,31.30
2017,06,24,17,04,31.30
2017,06,24,17,05,31.30
2017,06,24,17,06,31.20
2017,06,24,17,07,31.20
2017,06,24,17,08,31.20
2017,06,24,17,09,31.20
2017,06,24,17,10,31.20
2017,06,24,17,11,31.20
2017,06,24,17,12,31.20
2017,06,24,17,13,31.20
2017,06,24,17,14,31.20
2017,06,24,17,15,31.20
2017,06,24,17,16,31.20
2017,06,24,17,17,31.10
2017,06,24,17,18,31.10
2017,06,24,17,19,31.10